Beauceville, Quebec

3:40 PM EST on December 03, 2016 (GMT -0500)
Beauceville

Weather History for CWHV - September, 2013

Change the Weather History Date:

Saturday, September 21, 2013

  Actual Average Record
Temperature  
Mean Temperature 64 °F -  
Max Temperature 77 °F - - ()
Min Temperature 50 °F - - ()
Degree Days  
Heating Degree Days 2    
Growing Degree Days 14 (Base 50)    
Moisture  
Dew Point 49 °F    
Average Humidity 64    
Maximum Humidity 95    
Minimum Humidity 17    
Precipitation  
Precipitation 0.00 in - - ()
Sea Level Pressure  
Sea Level Pressure 29.75 in    
Wind  
Wind Speed 5 mph ()    
Max Wind Speed 15 mph    
Max Gust Speed 26 mph    
T = Trace of Precipitation, MM = Missing Value Source: Averaged Metar Reports

Daily Weather History Graph

Daily Weather History Graph

Search for Another Location

Airport or City:

Trip Planner

Search our weather history database for the weather conditions in past years. The results will help you decide how hot, cold, wet, or windy it might be!

Date:

Astronomy

Sep. 21, 2013 Rise Set
Actual Time 6:29 AM EDT 6:42 PM EDT
Civil Twilight 5:59 AM EDT 7:12 PM EDT
Nautical Twilight 5:23 AM EDT 7:47 PM EDT
Astronomical Twilight 4:47 AM EDT 8:23 PM EDT
Moon 7:39 PM EDT (9/21) 8:54 AM EDT (9/21)
Length of Visible Light 13h 13m
Length of Day
12h 13m
Waning Gibbous, 94% of the Moon is Illuminated
Sep 21
Waning Gibbous
Sep 26
Last Quarter
Oct 4
New
Oct 11
First Quarter
Oct 18
Full

Hourly Weather History & Observations

Time (EDT) Temp. Dew Point Humidity Pressure Visibility Wind Dir Wind Speed Gust Speed Precip Events Conditions
12:00 AM 58.6 °F 53.6 °F 83% 29.91 in - SSE 4.6 mph - N/A   Unknown
1:00 AM 57.9 °F 53.2 °F 84% 29.92 in - South 3.5 mph - N/A   Unknown
2:00 AM 56.7 °F 52.7 °F 87% 29.92 in - South 3.5 mph - N/A   Unknown
3:00 AM 55.2 °F 52.2 °F 89% 29.90 in - South 3.5 mph - N/A   Unknown
4:00 AM 52.9 °F 51.1 °F 94% 29.89 in - SSW 2.3 mph - N/A   Unknown
5:00 AM 52.2 °F 50.4 °F 94% 29.86 in - South 2.3 mph - N/A   Unknown
6:00 AM 50.4 °F 49.1 °F 95% 29.84 in - South 3.5 mph - N/A   Unknown
7:00 AM 51.4 °F 49.1 °F 92% 29.84 in - SSE 3.5 mph - N/A   Unknown
8:00 AM 53 °F 48 °F 79% 29.82 in - SSE 5.8 mph - -  
8:00 AM 52.7 °F 48.4 °F 85% 29.82 in - SSE 5.8 mph - N/A   Unknown
9:00 AM 56.8 °F 50.2 °F 78% 29.81 in - ESE 3.5 mph - N/A   Unknown
10:00 AM 63.3 °F 51.4 °F 65% 29.78 in - ESE 4.6 mph - N/A   Unknown
11:00 AM 69.8 °F 50.0 °F 49% 29.75 in - SE 6.9 mph - N/A   Unknown
12:00 PM 75.2 °F 39.4 °F 27% 29.73 in - South 9.2 mph - N/A   Unknown
1:00 PM 76.6 °F 40.1 °F 27% 29.70 in - SSE 11.5 mph 18.4 mph N/A   Unknown
2:00 PM 77 °F 40 °F 17% 29.67 in - SSE 15.0 mph - -  
2:00 PM 77.2 °F 40.3 °F 27% 29.67 in - SSE 15.0 mph 26.5 mph N/A   Unknown
3:00 PM 76.8 °F 40.6 °F 27% 29.65 in - SSE 12.7 mph 23.0 mph N/A   Unknown
4:00 PM 75.0 °F 43.7 °F 33% 29.63 in - SSE 11.5 mph 18.4 mph N/A   Unknown
5:00 PM 72.0 °F 46.8 °F 41% 29.64 in - SE 11.5 mph 19.6 mph N/A   Unknown
6:00 PM 68.4 °F 47.7 °F 48% 29.65 in - SSE 6.9 mph - N/A   Unknown
7:00 PM 65.3 °F 48.9 °F 55% 29.67 in - SSE 6.9 mph - N/A   Unknown
8:00 PM 62 °F 51 °F 57% 29.66 in - SSE 6.9 mph - -  
8:00 PM 61.7 °F 50.5 °F 67% 29.66 in - SSE 6.9 mph - N/A   Unknown
9:00 PM 61.2 °F 52.2 °F 72% 29.65 in - SSE 8.1 mph - N/A   Unknown
10:00 PM 59.9 °F 53.6 °F 80% 29.64 in - SE 5.8 mph - N/A   Unknown
11:00 PM 60.4 °F 55.6 °F 84% 29.61 in - SSE 4.6 mph - N/A   Unknown